Simultaneous Nadir Overpasses (SNOs) Predictions

Prediction of SNOs between GOES-16 and NPP Satellite Orbit:

Table of predicted SNOs for the next 14.0 days since TLE Epoch: 12/11/2021
Index Date Time (GOES-16) GOES-16 Lat,Lon NPP Lat,Lon Distance(km) Time Diff (sec)
1 12/11/2021 18:27:57 0.01, -75.20 -0.15, -75.89 79.02 80
2 12/12/2021 18:11:52 0.01, -75.21 0.88, -71.36 438.89 80
3 12/14/2021 06:33:38 -0.01, -75.22 0.28, -76.63 159.83 80
4 12/15/2021 06:14:52 -0.01, -75.23 -0.70, -72.08 358.37 80
5 12/16/2021 18:34:07 0.01, -75.25 -0.45, -77.39 243.18 80
6 12/17/2021 18:18:01 -0.00, -75.27 0.52, -72.85 275.32 80
7 12/19/2021 06:39:47 0.00, -75.29 0.63, -78.12 322.42 80
8 12/20/2021 06:18:21 0.01, -75.30 -0.41, -73.59 196.15 80
9 12/21/2021 18:40:16 -0.01, -75.33 -0.79, -78.88 404.93 80
10 12/22/2021 18:24:10 -0.01, -75.35 0.24, -74.35 114.02 80
11 12/24/2021 06:45:56 0.01, -75.38 0.97, -79.61 482.66 80
